EW8588 Weather Reports


time (UTC)temp
F
wind
direction
speed
knots
gust
knots
rain 1hr
in
rain 24hr
in
rain mn
in
humidity
%
barometer
mb
20260505194538 80 135 2.6 6.1 0.00 0.00 0.00 83 1007.4
20260505193035 80 98 0.9 6.1 0.00 0.00 0.00 83 1007.4
20260505191536 79 135 1.7 6.1 0.00 0.00 0.00 85 1007.5
20260505190038 79 149 1.7 6.1 0.00 0.00 0.00 85 1007.6
20260505184535 79 176 0.9 4.3 0.00 0.00 0.00 85 1007.7
20260505183049 78 165 0.9 3.5 0.00 0.00 0.00 86 1007.8
20260505181535 78 191 1.7 5.2 0.00 0.00 0.00 85 1008.0
20260505180033 79 134 1.7 7.0 0.00 0.00 0.00 84 1008.0
20260505174533 79 186 0.9 5.2 0.00 0.00 0.00 86 1008.0
20260505173041 78 125 0.9 4.3 0.00 0.00 0.00 86 1008.2
20260505171543 78 250 0.0 4.3 0.00 0.00 0.00 86 1008.3
20260505170032 78 92 1.7 6.1 0.00 0.00 0.00 84 1008.3
20260505164530 78 84 0.9 4.3 0.00 0.00 0.00 84 1008.3
20260505163029 79 158 0.0 4.3 0.00 0.00 0.00 84 1008.3
20260505161529 78 239 0.0 5.2 0.00 0.00 0.00 84 1008.2
20260505153027 80 110 0.9 8.7 0.00 0.00 0.00 80 1007.9
20260505151532 80 206 0.9 7.0 0.00 0.00 0.00 82 1007.7
20260505124507 74 160 0.9 3.5 0.00 0.00 0.00 89 1007.6
20260505123003 74 121 0.0 1.7 0.00 0.00 0.00 89 1007.3
20260505121559 73 176 0.0 3.5 0.00 0.00 0.00 89 1007.3
20260505120111 73 167 0.0 3.5 0.00 0.00 0.00 89 1007.6
20260505114552 73 109 0.0 4.3 0.00 0.00 0.00 89 1007.3
20260505113049 73 160 0.9 2.6 0.00 0.00 0.00 89 1007.0
20260505111545 73 134 0.0 1.7 0.00 0.00 0.00 89 1007.4
20260505101527 73 134 0.0 1.7 0.00 0.00 0.00 88 1007.3
20260505100026 73 124 0.9 2.6 0.00 0.00 0.00 88 1007.2
20260505094520 72 128 0.0 1.7 0.00 0.00 0.00 88 1007.3
20260505093019 72 128 0.0 2.6 0.00 0.00 0.00 88 1007.5
20260505091526 72 108 0.0 1.7 0.00 0.00 0.00 88 1007.5
20260505090035 73 98 0.0 3.5 0.00 0.00 0.00 87 1007.6
20260505084513 73 167 0.9 2.6 0.00 0.00 0.00 86 1007.5
20260505083009 73 98 0.0 4.3 0.00 0.00 0.00 86 1007.5
20260505081511 73 144 0.0 2.6 0.00 0.00 0.00 86 1007.7
20260505080001 73 169 0.0 2.6 0.00 0.00 0.00 86 1007.8
20260505074602 73 98 0.9 4.3 0.00 0.00 0.00 86 1007.9
20260505073111 72 104 0.0 2.6 0.00 0.00 0.00 86 1007.9
20260505071559 72 122 0.0 1.7 0.00 0.00 0.00 86 1008.1
20260505070053 72 168 0.0 2.6 0.00 0.00 0.00 87 1008.4
20260505064548 71 92 0.0 2.6 0.00 0.00 0.00 87 1008.6
20260505063046 71 125 0.0 0.9 0.00 0.00 0.00 86 1009.0
20260505061552 71 160 0.0 0.9 0.00 0.00 0.00 86 1009.0
20260505060044 71 153 0.0 2.6 0.00 0.00 0.00 85 1009.0
20260505054606 71 149 0.0 3.5 0.00 0.00 0.00 84 1009.1
20260505053054 71 129 0.0 2.6 0.00 0.00 0.00 85 1009.0
20260505051541 71 100 0.0 2.6 0.00 0.00 0.00 84 1009.2
20260505041537 71 175 0.0 4.3 0.00 0.00 0.00 83 1009.7
20260505040038 71 136 0.0 3.5 0.00 0.00 0.00 83 1009.8
20260505034538 71 157 0.0 5.2 0.00 0.00 0.00 82 1009.9
20260505033037 71 150 0.0 1.7 0.00 0.00 0.00 81 1009.9
20260505031546 71 154 0.0 1.7 0.00 0.00 0.00 81 1009.8
20260505030036 71 120 0.0 3.5 0.00 0.00 0.00 80 1009.8
20260505024540 71 150 0.0 2.6 0.00 0.00 0.00 79 1009.9
20260505023035 72 152 0.0 2.6 0.00 0.00 0.00 79 1009.8
20260505021535 72 139 0.0 4.3 0.00 0.00 0.00 78 1009.7
20260505020035 72 146 0.0 2.6 0.00 0.00 0.00 77 1009.7
20260505014537 73 152 0.9 2.6 0.00 0.00 0.00 76 1009.5
20260505013033 73 185 0.0 4.3 0.00 0.00 0.00 76 1009.4
20260505011535 73 148 0.9 4.3 0.00 0.00 0.00 76 1009.5
20260505010032 73 151 0.9 4.3 0.00 0.00 0.00 75 1009.4
20260505004544 74 174 0.9 5.2 0.00 0.00 0.00 73 1009.3
20260505003031 74 158 1.7 6.1 0.00 0.00 0.00 73 1009.3
20260505001531 74 136 0.9 4.3 0.00 0.00 0.00 72 1009.3
20260505000044 75 132 0.9 6.1 0.00 0.00 0.00 72 1009.4
20260504234627 75 110 0.9 6.1 0.00 0.00 0.00 71 1009.4
20260504233026 75 162 0.9 5.2 0.00 0.00 0.00 70 1009.6
20260504231524 75 179 1.7 7.0 0.00 0.00 0.00 70 1009.7
20260504230024 76 98 1.7 7.8 0.00 0.00 0.00 69 1010.1
20260504224523 76 193 1.7 7.0 0.00 0.00 0.00 69 1010.0
20260504223022 76 177 0.9 5.2 0.00 0.00 0.00 69 1010.3
20260504221519 76 153 0.9 5.2 0.00 0.00 0.00 69 1010.6
20260504220019 76 131 1.7 5.2 0.00 0.00 0.00 68 1010.6
20260504214518 77 73 1.7 6.1 0.00 0.00 0.00 67 1010.7
20260504213016 77 176 1.7 4.3 0.00 0.00 0.00 65 1010.8
20260504211515 78 87 1.7 5.2 0.00 0.00 0.00 65 1010.8
20260504210021 78 200 2.6 5.2 0.00 0.00 0.00 64 1011.1
20260504204513 78 158 0.9 4.3 0.00 0.00 0.00 65 1011.2
20260504203011 79 134 1.7 6.1 0.00 0.00 0.00 61 1011.4
20260504201513 80 158 0.9 4.3 0.00 0.00 0.00 60 1011.5
20260504200010 80 278 0.0 4.3 0.00 0.00 0.00 59 1011.8